[[{"header":{"parameterUnit":"m.s-1","parameterCategory":1,"la1":30.2991,"la2":30.254,"lo1":-89.0895,"lo2":-89.0444,"dy":0.0017,"dx":0.0017,"nx":28,"ny":28,"refTime":"2024-04-23T03:00:00:Z","depth":0,"parameterNumber":2,"parameterNumberName":"U-component_of_WINDS"},"data":[0,0,0,0,0,0,0,0,0,0,0,0,0,0,0,0,0,0,0,0,0,0,0,0,0,0,0,0,0,0,0,0,0,0,0,0,0,0,0,0,0,0,0,0,0,0,0,0,0,0,0,0,0,0,0,0,0,0,-0.1376,-0.1375,0,-0.1254,-0.1252,-0.1251,-0.1196,-0.1196,-0.1197,-0.1197,-0.1068,-0.1065,-0.1061,0,0,0,0,0,0,0,0,0,0,0,0,0,-0.1562,-0.1559,-0.1377,-0.1375,-0.1374,-0.1254,-0.1252,-0.1251,-0.1196,-0.1196,-0.1197,-0.1197,-0.1069,-0.1065,-0.1061,0,0,0,0,0,0,0,0,0,0,0,0,0,-0.1465,-0.1558,-0.1377,-0.1332,-0.1327,-0.1254,-0.1252,-0.125,-0.1196,-0.1196,-0.1197,-0.1197,-0.1071,-0.1065,-0.106,-0.1022,0,0,-0.1044,-0.1041,0,0,0,0,0,0,0,0,-0.1471,-0.1458,-0.134,-0.1335,-0.1329,-0.1241,-0.1271,-0.1174,-0.1196,-0.1246,-0.1197,-0.1197,-0.1125,-0.1115,-0.1092,-0.1016,-0.1011,-0.1043,-0.104,-0.1038,-0.1036,0,0,0,0,0,0,0,-0.1477,-0.1463,-0.1328,-0.1338,-0.1332,-0.1318,-0.1304,-0.1252,-0.1185,-0.1241,-0.1237,-0.1223,-0.1122,-0.1097,-0.1088,-0.1009,-0.1043,-0.1039,-0.1035,-0.1033,-0.0898,-0.0897,0,0,0,0,0,0,-0.1492,-0.1469,-0.1332,-0.1324,-0.1402,-0.1314,-0.1299,-0.1269,-0.1186,-0.1174,-0.1223,-0.1221,-0.1106,-0.1095,-0.1083,-0.1034,-0.1038,-0.1033,-0.103,-0.0898,-0.0898,-0.0897,0,0,0,0,0,0,-0.1496,-0.148,-0.1337,-0.1395,-0.1376,-0.1311,-0.1277,-0.1266,-0.1241,-0.1172,-0.116,-0.121,-0.1106,-0.1091,-0.1038,-0.1029,-0.103,-0.1025,-0.0898,-0.0898,-0.0897,-0.0935,0,0,0,0,0,0,-0.1502,-0.1482,-0.1467,-0.1396,-0.1373,-0.1294,-0.1277,-0.1264,-0.1232,-0.1228,-0.1156,-0.1145,-0.1105,-0.1047,-0.1033,-0.1022,-0.1021,-0.0899,-0.0898,-0.0898,-0.0935,-0.0936,-0.0937,0,0,0,0,0,-0.1508,-0.1481,-0.1466,-0.145,-0.1353,-0.1294,-0.1281,-0.1236,-0.1232,-0.1216,-0.1172,-0.1147,-0.1033,-0.1042,-0.1026,-0.1013,-0.0899,-0.0898,-0.0898,-0.0934,-0.0936,-0.0937,0,0,0,0,0,0,-0.1552,-0.1471,-0.1454,-0.1403,-0.1356,-0.1285,-0.1263,-0.1239,-0.1192,-0.119,-0.1136,-0.112,-0.1072,-0.1037,-0.1049,-0.0973,-0.0964,-0.096,-0.0997,-0.0998,-0.0999,-0.1008,-0.1017,0,0,0,0,0,-0.1556,-0.1515,-0.1446,-0.1408,-0.1386,-0.1329,-0.1301,-0.1271,-0.122,-0.1199,-0.1151,-0.1102,-0.1055,-0.1025,-0.0977,-0.093,-0.0914,-0.0913,-0.0915,-0.0916,-0.0913,-0.0886,-0.0885,-0.0894,-0.0894,-0.0894,0,0,-0.1563,-0.1514,-0.1491,-0.1416,-0.1376,-0.1334,-0.1312,-0.1269,-0.1237,-0.1192,-0.114,-0.1104,-0.1045,-0.0995,-0.097,-0.0964,-0.0907,-0.0915,-0.0917,-0.0912,-0.0885,-0.0884,-0.0884,-0.0894,-0.0894,-0.0894,0,0,-0.1554,-0.1514,-0.1478,-0.1439,-0.1379,-0.1342,-0.1334,-0.1266,-0.1241,-0.1188,-0.1154,-0.1116,-0.1035,-0.0995,-0.0964,-0.0944,-0.0919,-0.093,-0.0937,-0.0911,-0.0911,-0.091,-0.0903,-0.0901,-0.0927,-0.0927,-0.0927,0,-0.157,-0.1507,-0.1462,-0.1421,-0.1389,-0.1349,-0.1312,-0.1276,-0.1204,-0.1182,-0.1177,-0.1077,-0.1034,-0.0975,-0.0971,-0.0947,-0.0936,-0.0937,-0.0915,-0.0913,-0.0912,-0.0904,-0.0902,-0.0929,-0.0929,-0.0929,-0.0929,0,-0.153,-0.1487,-0.1465,-0.1398,-0.1364,-0.1325,-0.1274,-0.1245,-0.1219,-0.1183,-0.113,-0.1078,-0.102,-0.1004,-0.0977,-0.0941,-0.094,-0.0925,-0.0915,-0.0913,-0.0906,-0.0902,-0.0932,-0.0931,-0.093,-0.093,0,0,-0.1543,-0.1454,-0.1446,-0.1416,-0.1348,-0.1314,-0.1274,-0.1219,-0.1195,-0.1147,-0.1112,-0.1047,-0.1034,-0.0999,-0.0968,-0.0946,-0.0934,-0.0934,-0.0932,-0.0935,-0.0891,-0.0902,-0.09,-0.0918,-0.0917,-0.0916,-0.0896,0,-0.1525,-0.1453,-0.1412,-0.1356,-0.1316,-0.1278,-0.1243,-0.1198,-0.1164,-0.1124,-0.1086,-0.1041,-0.1027,-0.1006,-0.0982,-0.094,-0.0924,-0.0941,-0.0884,-0.0882,-0.0899,-0.0895,-0.0906,-0.0889,-0.0893,-0.0892,-0.0892,0,-0.1494,-0.1449,-0.1389,-0.1328,-0.1309,-0.1279,-0.1226,-0.1189,-0.1137,-0.1114,-0.1077,-0.1046,-0.1003,-0.0998,-0.0937,-0.095,-0.0925,-0.0901,-0.0899,-0.0891,-0.0886,-0.0887,-0.0883,-0.0881,-0.0887,-0.0887,-0.0887,0,-0.151,-0.1434,-0.1388,-0.1364,-0.1291,-0.127,-0.1239,-0.1188,-0.1158,-0.1112,-0.1092,-0.1041,-0.1013,-0.0974,-0.0931,-0.0931,-0.0875,-0.0866,-0.0854,-0.0855,-0.0843,-0.0844,-0.0835,-0.0828,-0.0828,-0.0828,-0.0828,0,-0.1493,-0.1458,-0.1395,-0.1367,-0.1327,-0.1281,-0.1243,-0.1208,-0.1164,-0.1128,-0.1093,-0.106,-0.1006,-0.0967,-0.0933,-0.0888,-0.0876,-0.0855,-0.0846,-0.0858,-0.0861,-0.084,-0.0839,-0.0827,-0.0828,-0.0828,-0.0828,0,-0.1503,-0.1459,-0.1408,-0.1344,-0.1327,-0.1301,-0.1246,-0.1217,-0.1182,-0.1138,-0.1125,-0.107,-0.1022,-0.0976,-0.0911,-0.0889,-0.0845,-0.0833,-0.0862,-0.0857,-0.0848,-0.0849,-0.0824,-0.0818,-0.0817,-0.0817,-0.0817,0,-0.1495,-0.1468,-0.1402,-0.1376,-0.1346,-0.1305,-0.1275,-0.123,-0.12,-0.114,-0.1119,-0.107,-0.1027,-0.0953,-0.0907,-0.0858,-0.0844,-0.0839,-0.0837,-0.085,-0.0844,-0.0846,-0.0843,-0.084,-0.084,-0.084,-0.0841,0,-0.1486,-0.1466,-0.1424,-0.1376,-0.1341,-0.13,-0.1258,-0.1239,-0.1186,-0.1154,-0.1106,-0.1073,-0.1009,-0.096,-0.0906,-0.0873,-0.0848,-0.0842,-0.0837,-0.0847,-0.0865,-0.0856,-0.0865,-0.0842,-0.0842,-0.0842,-0.0842,-0.0842,-0.1486,-0.1461,-0.1411,-0.1366,-0.133,-0.1292,-0.1262,-0.1225,-0.1184,-0.1128,-0.1104,-0.1056,-0.1006,-0.0932,-0.09,-0.0861,-0.0855,-0.0847,-0.0845,-0.0843,-0.0846,-0.0873,-0.0851,-0.0851,-0.0851,-0.0851,-0.0851,0,-0.1475,-0.1442,-0.1401,-0.1344,-0.1309,-0.129,-0.1243,-0.1215,-0.1173,-0.113,-0.1089,-0.1035,-0.0988,-0.0939,-0.0889,-0.0868,-0.0855,-0.0856,-0.0856,-0.085,-0.0855,-0.0864,-0.0867,-0.0867,-0.0867,-0.0867,-0.0867,-0.0867,-0.1465,-0.142,-0.1395,-0.1333,-0.13,-0.1253,-0.1228,-0.1192,-0.1158,-0.1099,-0.106,-0.1029,-0.0983,-0.0931,-0.0887,-0.0874,-0.0857,-0.0861,-0.0845,-0.085,-0.0849,-0.0848,-0.0857,-0.0858,-0.0858,-0.0843,-0.0843,-0.0843]},{"header":{"parameterUnit":"m.s-1","parameterCategory":1,"la1":30.2991,"la2":30.254,"lo1":-89.0895,"lo2":-89.0444,"dy":0.0017,"dx":0.0017,"nx":28,"ny":28,"refTime":"2024-04-23T03:00:00:Z","depth":0,"parameterNumber":3,"parameterNumberName":"V-component_of_WINDS"},"data":[0,0,0,0,0,0,0,0,0,0,0,0,0,0,0,0,0,0,0,0,0,0,0,0,0,0,0,0,0,0,0,0,0,0,0,0,0,0,0,0,0,0,0,0,0,0,0,0,0,0,0,0,0,0,0,0,0,0,2.5819,2.5819,0,2.5785,2.5785,2.5784,2.5828,2.583,2.5832,2.5833,2.5792,2.579,2.5787,0,0,0,0,0,0,0,0,0,0,0,0,0,2.5917,2.5915,2.5819,2.5819,2.5818,2.5785,2.5785,2.5784,2.5828,2.583,2.5832,2.5834,2.5793,2.579,2.5787,0,0,0,0,0,0,0,0,0,0,0,0,0,2.5878,2.5914,2.5819,2.5836,2.5838,2.5785,2.5785,2.5784,2.5828,2.583,2.5833,2.5835,2.5794,2.5791,2.5787,2.5714,0,0,2.5775,2.5773,0,0,0,0,0,0,0,0,2.588,2.5874,2.5834,2.5835,2.5836,2.5814,2.5804,2.576,2.5827,2.5831,2.5833,2.5836,2.5797,2.5793,2.5781,2.5712,2.571,2.5775,2.5772,2.577,2.5769,0,0,0,0,0,0,0,2.5883,2.5876,2.5805,2.5834,2.5835,2.5844,2.5841,2.5796,2.5801,2.5831,2.5834,2.583,2.5798,2.5785,2.5781,2.571,2.5775,2.5771,2.5769,2.5767,2.5579,2.5576,0,0,0,0,0,0,2.5884,2.5878,2.5806,2.5804,2.5865,2.584,2.5837,2.5818,2.5801,2.5801,2.5828,2.5832,2.579,2.5785,2.5779,2.5693,2.5771,2.5767,2.5765,2.5582,2.5578,2.5576,0,0,0,0,0,0,2.5886,2.5877,2.5808,2.5842,2.5834,2.5836,2.5815,2.5816,2.5803,2.5799,2.58,2.5814,2.5792,2.5785,2.573,2.5692,2.5765,2.5762,2.5585,2.5581,2.5577,2.5519,0,0,0,0,0,0,2.5889,2.5878,2.5851,2.5841,2.5832,2.5761,2.5812,2.5814,2.5797,2.5802,2.5786,2.5786,2.5793,2.5736,2.5726,2.5688,2.5759,2.5588,2.5583,2.5578,2.5524,2.5514,2.5504,0,0,0,0,0,2.5892,2.5835,2.585,2.5841,2.5799,2.5758,2.5753,2.5765,2.5794,2.5766,2.5764,2.5786,2.5698,2.573,2.572,2.5679,2.5591,2.5584,2.5579,2.5529,2.5516,2.5505,0,0,0,0,0,0,2.5838,2.5834,2.585,2.5789,2.5774,2.5766,2.5732,2.575,2.5725,2.5731,2.5745,2.5741,2.5683,2.5676,2.5711,2.5608,2.5649,2.5641,2.5615,2.5602,2.5592,2.5594,2.5755,0,0,0,0,0,2.582,2.5789,2.5786,2.5732,2.5724,2.5729,2.5712,2.5722,2.5707,2.57,2.5693,2.5676,2.5644,2.5623,2.5594,2.5524,2.5521,2.5491,2.5481,2.5473,2.5465,2.5427,2.5414,2.5556,2.5556,2.5556,0,0,2.578,2.5774,2.5753,2.5721,2.5711,2.5677,2.5723,2.5685,2.566,2.5694,2.5642,2.5637,2.5618,2.5556,2.5528,2.5548,2.5426,2.5466,2.5459,2.5456,2.542,2.5406,2.5394,2.5552,2.5552,2.5553,0,0,2.5691,2.5684,2.5638,2.5627,2.5612,2.5616,2.5605,2.5594,2.5592,2.5541,2.5566,2.5535,2.5481,2.5466,2.5452,2.5358,2.5377,2.5348,2.5295,2.5258,2.5247,2.5237,2.5202,2.519,2.5341,2.534,2.534,0,2.5643,2.5594,2.5611,2.5572,2.5556,2.5588,2.554,2.5529,2.5503,2.5491,2.5515,2.5448,2.5437,2.5372,2.5349,2.5337,2.5323,2.5349,2.5247,2.5238,2.5229,2.5196,2.5183,2.5337,2.5337,2.5338,2.5338,0,2.5536,2.5502,2.5466,2.5443,2.5424,2.5381,2.5389,2.5368,2.538,2.5381,2.5328,2.5317,2.5287,2.5272,2.5283,2.5208,2.5221,2.5246,2.5287,2.5211,2.5181,2.5168,2.5332,2.5333,2.5334,2.5335,0,0,2.541,2.5398,2.5385,2.5375,2.5361,2.5334,2.5291,2.5263,2.5244,2.5226,2.519,2.5143,2.5167,2.515,2.516,2.5128,2.5053,2.5157,2.5156,2.5137,2.4968,2.4949,2.4934,2.5067,2.5064,2.5063,2.497,0,2.5319,2.5248,2.5263,2.5192,2.516,2.5191,2.5154,2.514,2.514,2.5112,2.5111,2.5078,2.5112,2.5102,2.5072,2.5069,2.5019,2.5076,2.5031,2.503,2.5034,2.4919,2.4898,2.4811,2.4958,2.4956,2.4955,0,2.5204,2.5184,2.5111,2.5103,2.509,2.5056,2.5032,2.5005,2.499,2.4992,2.4975,2.4991,2.4947,2.499,2.493,2.4968,2.4951,2.4947,2.4944,2.4939,2.4986,2.4909,2.4783,2.477,2.4936,2.4938,2.4939,0,2.5118,2.5073,2.5023,2.5014,2.5003,2.4979,2.4973,2.4961,2.4943,2.4921,2.4909,2.4882,2.4866,2.4844,2.4852,2.4882,2.4789,2.4833,2.4788,2.4788,2.4766,2.4767,2.4634,2.4757,2.4757,2.4757,2.4758,0,2.5015,2.4969,2.4985,2.4954,2.4903,2.4919,2.4868,2.4865,2.4854,2.4822,2.4847,2.4816,2.4829,2.4798,2.4804,2.4753,2.4746,2.4745,2.4747,2.4742,2.4742,2.473,2.4736,2.4754,2.4755,2.4755,2.4756,0,2.491,2.4919,2.4867,2.4862,2.4859,2.4822,2.4816,2.4787,2.479,2.4749,2.474,2.4743,2.4709,2.4716,2.4677,2.4681,2.4616,2.4626,2.4622,2.4624,2.4578,2.4582,2.4432,2.4413,2.4549,2.4548,2.4547,0,2.4843,2.4809,2.48,2.4782,2.4775,2.4744,2.4727,2.4741,2.4722,2.4703,2.4675,2.4644,2.4619,2.4563,2.4561,2.4531,2.454,2.4489,2.4535,2.4532,2.4538,2.4539,2.4536,2.448,2.4478,2.4477,2.4476,0,2.4723,2.473,2.4704,2.4681,2.466,2.4641,2.4625,2.4608,2.4621,2.4598,2.4564,2.4546,2.4508,2.4475,2.4448,2.444,2.4459,2.4462,2.445,2.4444,2.4442,2.4442,2.4596,2.4465,2.4466,2.4467,2.4467,2.4468,2.4634,2.4605,2.4595,2.4566,2.4556,2.454,2.4513,2.4513,2.4485,2.4457,2.4467,2.4428,2.4414,2.438,2.4369,2.4338,2.4357,2.434,2.4335,2.433,2.4324,2.4449,2.4334,2.4334,2.4334,2.4334,2.4335,0,2.4514,2.451,2.4483,2.4461,2.4438,2.4461,2.4444,2.4423,2.4389,2.4375,2.4351,2.4312,2.4282,2.4278,2.4248,2.4224,2.4232,2.4216,2.4217,2.4215,2.431,2.4323,2.421,2.421,2.421,2.421,2.421,2.421,2.4449,2.4401,2.4406,2.4353,2.4348,2.4312,2.43,2.4286,2.4275,2.4231,2.4206,2.4205,2.4195,2.4165,2.4138,2.4137,2.4125,2.4104,2.4107,2.4196,2.4208,2.422,2.4232,2.4102,2.4102,2.4015,2.4014,2.4013]}]]